This is the latest recevied weather packets stored in our database for station/object EA7AVH-10. If no packets are shown the sender has not sent any weather packets the latest 10 day(s).
| Time | Temp. | Humidity | Pressure | Rain* | Wind** | Luminosity | Snow |
|---|---|---|---|---|---|---|---|
| 1777519039 | 13.89° C | 78% | 922.4 hPa | - | - | - | - |
| 1777518139 | 13.89° C | 78% | 922.4 hPa | - | - | - | - |
| 1777517238 | 14.44° C | 77% | 922.4 hPa | - | - | - | - |
| 1777516337 | 15° C | 77% | 922.4 hPa | - | - | - | - |
| 1777515436 | 14.44° C | 77% | 922.4 hPa | - | - | - | - |
| 1777514535 | 14.44° C | 77% | 922.5 hPa | - | - | - | - |
| 1777513634 | 13.89° C | 77% | 922.4 hPa | - | - | - | - |
| 1777512734 | 13.33° C | 78% | 922.5 hPa | - | - | - | - |
| 1777511833 | 12.78° C | 78% | 922.6 hPa | - | - | - | - |
| 1777510932 | 12.78° C | 77% | 922.6 hPa | - | - | - | - |
| 1777510031 | 12.78° C | 77% | 922.6 hPa | - | - | - | - |
| 1777509131 | 12.78° C | 77% | 922.7 hPa | - | - | - | - |
| 1777508230 | 12.78° C | 77% | 922.7 hPa | - | - | - | - |
| 1777507329 | 12.78° C | 77% | 922.7 hPa | - | - | - | - |
| 1777506428 | 13.33° C | 77% | 922.5 hPa | - | - | - | - |
| 1777505528 | 12.78° C | 77% | 922.5 hPa | - | - | - | - |
| 1777504627 | 13.33° C | 76% | 922.2 hPa | - | - | - | - |
| 1777503744 | 13.33° C | 77% | 922.1 hPa | - | - | - | - |
| 1777502844 | 12.78° C | 77% | 922.1 hPa | - | - | - | - |
| 1777501943 | 13.33° C | 77% | 921.9 hPa | - | - | - | - |
| 1777501042 | 13.33° C | 77% | 921.9 hPa | - | - | - | - |
| 1777500141 | 13.89° C | 76% | 921.8 hPa | - | - | - | - |
| 1777499240 | 13.33° C | 77% | 921.7 hPa | - | - | - | - |
| 1777498340 | 13.89° C | 77% | 921.7 hPa | - | - | - | - |
| 1777497439 | 14.44° C | 76% | 921.6 hPa | - | - | - | - |
* Rain since midnight (hover to see other rain measurements)
** Current wind speed in m/s (hover to see current wind gust speed)